カタログに戻る

STARLINK-34719

運用中通信SSO
NORAD 64943·PAYLOAD·🇺🇸 United States

打ち上げ Jul 26, 2025 から Vandenberg Space Force Base

Loading…

次のパス (今後24時間)

TLE

最新Source: CelesTrak SupGP

元期: Sep 14, 2026, 22:49 UTC

1 64943C 25158M   26257.95118056  .00054310  00000+0  16852-2 0  2577
2 64943  97.2849 116.2822 0001441  92.7889 216.8010 15.33425605    15

AllMySatでSTARLINK-34719をリアルタイム追跡

Download on the App Store